EW7099 Weather Reports


time (UTC)temp
C
wind
direction
speed
KPH
gust
KPH
rain 1hr
cm
rain 24hr
cm
rain mn
cm
humidity
%
barometer
mb
20260503001519 29 190 3.2 11.3 0.00 0.00 0.00 75 1007.8
20260503000027 29 161 3.2 9.7 0.00 0.00 0.00 74 1007.5
20260502234530 29 198 8.0 12.9 0.00 0.00 0.00 74 1007.3
20260502233017 29 175 9.7 17.7 0.00 0.00 0.00 74 1007.2
20260502231515 30 207 11.3 22.5 0.00 0.00 0.00 73 1007.1
20260502230014 30 189 11.3 29.0 0.00 0.00 0.00 72 1007.0
20260502224513 30 171 16.1 29.0 0.00 0.00 0.00 72 1006.9
20260502223032 30 360 14.5 24.1 0.00 0.00 0.00 69 1006.9
20260502221511 31 167 12.9 25.7 0.00 0.00 0.00 68 1007.0
20260502220009 31 190 16.1 25.7 0.00 0.00 0.00 65 1006.9
20260502214508 32 360 14.5 35.4 0.00 0.00 0.00 63 1006.9
20260502213006 32 206 19.3 33.8 0.00 0.00 0.00 61 1007.0
20260502211503 32 161 20.9 38.6 0.00 0.00 0.00 61 1007.1
20260502210002 32 153 17.7 35.4 0.00 0.00 0.00 60 1007.2
20260502204502 33 222 24.1 37.0 0.00 0.00 0.00 58 1007.3
20260502203001 33 165 19.3 37.0 0.00 0.00 0.00 58 1007.4
20260502201600 33 180 25.7 35.4 0.00 0.00 0.00 57 1007.5
20260502200100 33 192 22.5 35.4 0.00 0.00 0.00 57 1007.8
20260502194556 33 194 19.3 37.0 0.00 0.00 0.00 54 1008.0
20260502193055 32 181 24.1 40.2 0.00 0.00 0.00 57 1008.4
20260502191559 32 190 17.7 38.6 0.00 0.00 0.00 57 1008.6
20260502190050 32 227 17.7 38.6 0.00 0.00 0.00 57 1008.9
20260502184548 32 177 19.3 37.0 0.00 0.00 0.00 58 1009.1
20260502183049 32 190 17.7 37.0 0.00 0.00 0.00 58 1009.2
20260502181548 31 175 24.1 48.3 0.00 0.00 0.00 60 1009.4
20260502163023 33 166 14.5 29.0 0.00 0.00 0.00 49 1009.7
20260502161517 34 178 16.1 24.1 0.00 0.00 0.00 49 1009.7
20260502151549 31 227 9.7 20.9 0.00 0.00 0.00 47 1009.7
20260502123112 23 22 1.6 6.4 0.00 0.00 0.00 83 1007.4
20260502121556 23 277 0.0 0.0 0.00 0.00 0.00 83 1007.1
20260502114546 23 276 0.0 3.2 0.00 0.00 0.00 86 1006.8
20260502113050 23 287 0.0 4.8 0.00 0.00 0.00 86 1006.7
20260502111547 24 281 1.6 8.0 0.00 0.00 0.00 86 1006.6
20260502110039 24 293 0.0 8.0 0.00 0.00 0.00 85 1006.6
20260502104537 24 300 0.0 1.6 0.00 0.00 0.00 85 1006.4
20260502103035 25 304 1.6 8.0 0.00 0.00 0.00 84 1006.4
20260502101539 25 285 1.6 11.3 0.00 0.00 0.00 84 1006.4
20260502091528 25 269 6.4 11.3 0.00 0.00 0.00 85 1007.0
20260502071510 26 271 4.8 12.9 0.00 0.00 0.00 83 1008.5
20260502070015 26 233 3.2 14.5 0.00 0.00 0.00 83 1008.7
20260502064505 26 323 8.0 14.5 0.00 0.00 0.00 83 1008.8
20260502063003 26 267 8.0 16.1 0.00 0.00 0.00 83 1008.8
20260502061501 26 261 6.4 14.5 0.00 0.00 0.00 84 1009.0
20260502060059 26 246 6.4 17.7 0.00 0.00 0.00 84 1009.1
20260502054556 26 258 8.0 17.7 0.00 0.00 0.00 85 1009.2
20260502053058 26 293 6.4 16.1 0.00 0.00 0.00 85 1009.2
20260502051601 27 250 8.0 16.1 0.00 0.00 0.00 84 1009.2
20260502050052 27 296 9.7 19.3 0.00 0.00 0.00 84 1009.3
20260502044520 27 238 4.8 16.1 0.00 0.00 0.00 83 1009.2
20260502043019 27 272 6.4 16.1 0.00 0.00 0.00 83 1009.0
20260502041546 27 242 8.0 19.3 0.00 0.00 0.00 83 1008.8
20260502040044 27 275 9.7 19.3 0.00 0.00 0.00 83 1008.6
20260502034539 27 219 6.4 19.3 0.00 0.00 0.00 82 1008.3
20260502033035 27 286 11.3 22.5 0.00 0.00 0.00 83 1008.0
20260502031533 27 230 8.0 24.1 0.00 0.00 0.00 82 1007.8
20260502030033 27 274 9.7 24.1 0.00 0.00 0.00 82 1007.5
20260502024555 27 289 4.8 20.9 0.00 0.00 0.00 81 1007.2
20260502023053 27 248 11.3 24.1 0.00 0.00 0.00 81 1006.8
20260502021522 27 213 8.0 20.9 0.00 0.00 0.00 80 1006.5
20260502020018 27 230 12.9 25.7 0.00 0.00 0.00 79 1006.3
20260502014512 28 276 9.7 22.5 0.00 0.00 0.00 78 1006.0
20260502013012 28 221 9.7 24.1 0.00 0.00 0.00 77 1005.6
20260502011504 28 252 8.0 32.2 0.00 0.00 0.00 75 1005.2
20260502010101 28 242 12.9 33.8 0.00 0.00 0.00 72 1005.1
20260502004527 29 254 12.9 29.0 0.00 0.00 0.00 70 1004.8
20260502003026 30 215 12.9 35.4 0.00 0.00 0.00 68 1004.4